Probability
0 0 0 0 0 0 0 0 0 0 0 0 0 0 0 0 1 1 1 1 1 1 0 0 0 0 0 0 0 0 0 1 2 1 0 0 0 0 0 0 0 0 0
0 0 0 0 0 0 0 0 0 0 0 0 0 0 0 0 0 0 0 1 1 0 0 0 0 1 1 1 0 0 0 1 2 1 0 0 0 0 0 0 0 0 0
0 0 0 0 0 0 0 0 0 0 0 0 0 0 0 0 0 0 0 1 1 1 3 3 3 3 4 3 1 0 0 1 1 1 1 0 0 0 0 0 0 0 0
0 0 0 0 0 0 0 0 0 0 0 0 0 0 0 0 0 0 0 1 1 2 6 10 10 9 7 5 2 1 3 5 3 1 1 1 1 0 0 0 0 0 0
0 0 0 0 0 0 0 0 0 0 0 1 0 0 0 0 0 0 0 0 0 2 6 13 19 20 17 12 7 8 16 18 8 1 1 2 2 1 0 0 0 0 0
5 4 1 0 0 0 0 0 0 0 1 2 1 0 0 0 0 0 0 0 0 0 4 10 19 28 30 23 16 18 28 26 12 2 1 2 3 2 1 0 0 0 0
12 7 2 0 0 0 0 0 0 0 1 1 0 0 0 0 0 0 0 0 0 0 1 5 10 19 25 23 19 19 23 19 9 3 2 3 4 3 1 0 0 0 0
9 5 1 0 0 0 0 0 0 0 0 0 0 0 0 0 0 0 0 0 0 0 0 1 2 5 8 10 11 12 11 7 4 2 3 4 4 2 1 0 0 0 0
2 1 0 0 0 0 0 0 0 0 0 0 0 0 0 0 0 0 0 0 0 0 0 0 0 0 0 1 3 5 5 2 1 1 3 4 2 1 0 0 0 0 0
0 0 0 0 0 0 0 0 0 0 0 0 0 0 0 0 0 0 0 0 0 0 0 0 0 0 0 0 0 1 1 1 0 1 2 2 1 0 0 0 0 0 0
0 0 0 0 0 0 0 0 0 0 0 0 0 0 0 0 0 0 0 0 0 0 0 0 0 0 0 0 0 0 0 0 0 0 1 1 1 0 0 0 0 0 0
0 0 0 0 0 0 0 0 0 0 0 0 0 0 0 0 0 0 0 0 0 0 0 0 0 0 0 0 0 0 0 0 0 0 0 0 0 0 0 0 0 0 0
0 0 0 0 0 0 0 0 0 0 0 0 0 0 0 0 0 0 0 0 0 0 0 0 0 0 0 0 0 0 0 0 0 0 0 0 0 0 0 0 0 0 0
0 0 0 0 0 0 0 0 0 0 0 0 0 0 0 0 0 0 0 0 0 0 0 0 0 0 0 1 0 0 0 0 0 0 0 0 0 0 0 0 0 0 0
0 0 0 0 0 0 0 0 0 0 0 0 0 0 0 0 0 0 0 0 0 0 0 0 0 0 1 2 1 0 0 0 0 0 0 0 0 0 0 0 0 0 0
0 0 0 0 0 0 0 0 0 0 0 0 0 0 0 0 0 0 0 0 0 0 0 0 0 0 0 1 0 0 0 0 0 0 0 0 0 0 0 0 0 0 0
0 0 0 0 0 0 0 0 0 0 0 0 0 0 0 0 0 0 0 0 0 0 0 0 0 0 0 0 0 0 0 0 0 0 0 0 0 0 0 0 0 0 0
0 0 0 0 0 0 0 0 0 0 0 0 0 0 0 0 0 0 0 0 0 0 0 0 0 0 0 0 0 1 0 0 0 0 0 0 0 0 0 0 0 0 0
0 0 0 0 0 0 0 0 0 0 0 0 0 0 0 0 0 0 0 0 0 0 0 0 0 0 0 0 1 2 1 0 0 0 0 0 0 0 0 0 0 0 0
0 0 0 0 0 0 0 0 0 0 0 0 0 0 0 0 0 0 0 0 0 0 0 0 0 0 0 0 0 1 0 0 0 0 0 0 0 0 0 0 0 0 0
0 0 0 0 0 0 0 0 0 0 0 0 0 0 0 0 0 0 0 0 0 0 0 0 0 0 0 0 0 0 0 0 0 0 0 0 0 0 0 0 0 0 0
0 0 0 0 0 0 0 0 0 0 0 0 0 0 0 0 0 0 0 0 0 0 0 0 0 0 0 0 0 0 0 0 0 0 0 0 0 0 0 0 0 0 0
0 0 0 0 0 0 0 0 0 0 0 0 0 0 0 0 0 0 0 0 0 0 0 0 0 0 0 0 0 0 0 0 0 0 0 0 0 0 0 0 0 0 0
0 0 0 0 0 0 0 0 0 0 0 0 0 0 0 0 0 0 0 0 0 0 0 0 0 0 0 0 0 0 0 0 0 0 0 0 0 0 0 0 0 0 0
0 0 0 0 0 0 0 0 0 0 0 0 0 0 0 0 0 0 0 0 0 0 0 0 0 0 0 0 0 0 0 0 0 0 0 0 0 0 0 0 0 0 0
0 0 0 0 0 0 0 0 0 0 0 0 0 0 0 0 0 0 0 0 0 0 0 0 0 0 0 0 0 0 0 0 0 0 0 0 0 0 0 0 0 0 0
Wind_Speed
4 4 3 3 4 3 4 4 5 5 6 7 7 9 10 9 9 7 6 14 15 14 14 14 13 14 15 13 13 13 13 14 13 13 14 15 15 15 16 18 18 17 16
5 4 4 4 4 4 4 4 4 4 5 5 7 8 9 8 8 8 7 9 15 15 14 14 14 13 13 13 13 13 12 13 13 12 12 12 13 14 15 18 19 19 18
7 6 5 5 4 3 4 4 5 4 4 5 7 7 7 8 8 9 8 7 9 12 14 13 14 12 12 13 14 14 12 13 13 11 10 11 11 12 14 17 20 20 19
9 6 5 5 4 3 3 4 4 4 5 5 5 6 7 6 8 8 8 8 7 7 9 11 12 12 13 13 15 15 14 13 12 12 11 11 11 11 12 15 20 21 20
7 6 5 6 5 4 4 4 4 4 5 6 5 6 6 7 8 7 9 9 8 8 6 8 11 11 13 14 14 15 14 13 12 13 13 12 12 12 12 13 19 21 21
6 6 5 5 4 4 5 4 5 4 5 6 5 6 6 7 7 7 9 8 7 8 6 6 6 7 11 13 15 15 15 15 14 14 14 14 14 13 13 13 18 22 23
6 6 4 4 3 3 5 4 4 6 5 2 3 5 6 8 8 8 8 7 7 6 6 5 4 5 6 11 12 14 15 16 16 15 15 15 14 13 12 13 18 23 24
4 3 1 1 3 3 5 5 5 5 4 4 3 3 5 6 6 6 6 6 6 4 6 6 6 6 6 5 7 10 12 14 16 16 16 15 14 13 13 12 18 23 25
2 1 2 2 3 3 5 6 6 8 8 5 7 6 6 5 2 3 3 4 4 3 4 4 6 6 6 4 6 8 10 11 13 14 14 14 14 13 13 13 17 23 26
4 2 2 2 3 3 4 5 6 6 7 6 5 7 8 4 2 3 3 2 2 3 4 4 6 7 6 5 7 8 8 8 8 9 8 9 9 10 12 13 16 22 26
4 3 1 2 2 2 3 3 4 4 4 5 5 3 3 4 4 4 5 2 2 3 4 5 6 6 5 5 5 5 6 6 5 5 8 10 12 12 12 15 18 20 26
3 1 1 2 2 2 3 3 3 3 4 3 3 3 2 2 3 4 6 5 4 3 3 4 6 6 4 4 6 6 7 4 3 5 8 10 12 14 16 17 18 20 26
1 1 1 2 2 3 3 3 3 3 3 2 2 2 2 3 2 2 2 3 3 2 3 4 4 4 4 2 4 6 5 4 4 5 6 9 11 13 15 16 18 20 26
2 2 2 2 2 4 4 4 3 3 3 3 4 4 2 2 1 1 1 2 3 2 2 3 3 3 3 2 3 5 3 3 2 4 6 7 8 10 10 12 14 18 25
2 3 4 5 5 5 5 5 3 4 3 3 4 5 4 4 5 4 2 1 1 1 2 1 2 4 2 2 2 1 0 1 2 4 4 4 6 4 4 9 13 16 24
3 5 5 5 5 4 4 4 3 3 3 3 3 4 4 3 3 4 4 3 1 2 2 1 2 3 3 2 1 1 1 1 1 2 2 2 5 6 5 9 16 20 23
3 5 4 4 2 3 4 3 3 3 5 5 5 5 6 6 4 4 4 3 2 2 3 3 3 3 3 4 2 2 3 3 1 0 3 4 4 5 7 10 15 19 21
4 4 4 3 2 3 3 4 5 6 7 7 6 6 6 5 4 4 3 3 3 2 2 3 3 2 2 3 3 2 3 3 2 2 3 4 4 5 7 11 12 13 14
6 5 5 4 4 3 3 5 6 6 6 6 6 6 5 5 4 4 5 4 4 3 2 2 2 1 2 2 3 2 3 3 3 3 4 5 6 6 7 10 12 12 12
6 5 4 4 4 4 5 5 6 6 5 5 5 4 4 3 3 4 5 5 6 6 4 3 2 2 2 2 2 2 2 2 2 3 4 5 6 6 8 9 8 8 9
6 5 5 5 5 5 5 5 5 6 6 5 5 5 5 6 4 3 3 5 5 5 4 4 3 3 4 4 3 2 1 2 2 2 3 4 4 5 5 7 8 8 8
5 6 6 5 6 5 7 8 7 6 6 6 6 6 6 8 7 7 6 5 5 5 5 4 4 4 5 5 5 3 0 1 1 1 1 2 2 3 4 4 6 8 9
5 6 5 5 6 4 7 11 10 6 6 5 5 6 7 7 7 6 7 9 9 8 6 4 4 4 5 5 6 5 3 2 1 2 1 1 1 0 1 4 4 5 7
6 5 4 4 5 4 6 12 10 6 5 4 5 5 6 6 7 6 6 9 8 8 8 5 4 5 4 5 4 2 2 3 4 3 3 1 2 2 2 4 6 5 2
5 5 5 5 5 5 4 9 7 4 4 5 6 6 7 7 10 11 9 9 9 8 7 6 5 5 6 6 7 4 3 3 3 1 1 0 1 2 2 2 3 5 2
5 6 6 5 6 6 6 4 5 3 4 4 5 6 8 8 9 11 8 7 8 8 8 9 9 10 10 10 10 7 4 2 1 2 1 1 0 2 2 2 2 1 1
Wind_Direction
222 232 240 244 250 245 243 250 245 241 252 257 251 252 255 252 253 242 246 261 266 260 254 251 251 248 249 250 248 247 247 249 247 239 237 236 235 232 223 215 209 205 205
215 220 236 246 255 251 248 245 246 245 249 254 261 252 255 260 257 248 242 253 258 258 256 253 247 247 249 251 248 243 243 246 246 242 242 243 239 234 228 219 214 206 203
213 216 226 238 247 256 262 255 254 256 261 255 258 261 261 260 260 257 247 240 248 253 252 248 248 243 236 237 242 243 242 243 244 241 238 242 239 236 230 218 214 208 202
210 210 219 231 234 238 240 248 252 260 259 253 255 261 264 262 258 259 259 248 239 241 250 249 244 238 237 235 242 244 242 237 237 235 233 237 237 238 236 221 211 208 200
201 197 216 229 230 241 243 241 247 236 255 258 260 267 263 265 268 265 261 257 245 236 235 245 249 241 238 238 239 238 236 235 235 237 237 239 238 235 236 224 209 204 197
199 200 213 230 234 247 261 258 262 258 254 262 267 270 268 264 261 260 258 259 253 247 240 240 252 252 246 240 237 234 232 231 235 240 242 240 237 235 233 222 207 201 195
191 194 196 215 227 244 266 278 286 281 270 242 260 264 257 256 255 254 247 246 247 244 241 236 240 249 248 244 242 234 230 232 235 238 240 238 233 231 228 220 204 199 193
153 163 115 350 323 312 300 283 268 276 270 215 231 274 281 273 253 247 236 232 241 241 246 243 230 241 246 247 244 236 234 236 238 237 237 235 231 227 226 221 208 199 192
4 22 24 346 302 284 283 284 273 268 274 248 219 237 262 259 283 285 269 249 246 243 252 253 254 257 256 245 249 250 247 247 246 246 244 240 236 229 226 224 214 201 193
305 335 348 311 295 293 283 280 285 283 278 280 259 233 241 241 232 294 309 304 285 256 255 257 257 251 243 246 245 248 253 251 249 252 259 259 252 239 229 226 222 205 192
281 268 322 309 308 301 296 312 327 311 286 285 285 278 246 239 228 225 264 290 294 259 250 251 263 263 247 232 235 235 230 216 219 251 261 263 262 257 242 231 227 212 192
252 290 337 342 329 316 305 318 324 324 318 301 287 268 250 240 239 226 239 245 255 266 272 270 268 264 260 232 236 227 196 188 214 248 259 268 269 262 251 237 225 211 193
169 41 1 331 328 317 324 326 322 324 326 331 334 308 273 253 238 231 249 271 271 281 286 277 268 274 286 241 214 186 177 188 225 260 279 283 275 258 244 231 216 206 188
135 69 40 14 352 359 7 5 357 350 347 356 25 31 13 17 338 253 220 246 266 269 270 284 311 336 336 296 210 169 171 206 253 290 301 304 295 269 243 209 201 192 179
137 94 63 51 44 38 27 20 12 354 351 12 38 51 47 17 7 350 328 279 250 304 281 0 328 348 335 276 238 167 194 259 308 321 325 332 325 308 198 171 174 167 165
111 96 81 70 61 49 29 18 356 356 23 26 29 32 49 29 5 350 341 336 253 176 257 292 268 291 297 322 283 241 262 234 292 346 62 41 26 50 99 135 146 151 158
104 105 98 84 49 18 23 14 5 10 30 23 27 47 47 41 25 13 351 324 299 227 244 256 238 255 267 276 228 202 220 213 245 68 101 92 83 79 98 119 140 154 163
80 83 84 75 42 20 20 21 19 21 30 33 38 46 41 49 49 42 11 353 324 310 257 279 276 266 267 265 246 215 221 220 208 165 133 118 103 113 121 107 113 130 141
69 65 70 66 50 43 44 42 51 53 56 45 33 33 24 36 41 30 19 1 336 330 310 285 307 320 290 299 281 244 222 220 217 188 166 148 132 123 125 133 137 143 145
100 97 85 68 45 39 49 53 71 76 57 40 23 14 16 19 21 19 13 5 357 354 357 339 336 304 296 314 296 271 234 211 209 185 155 154 151 148 149 148 149 157 164
98 96 79 62 51 45 49 67 85 77 49 37 20 12 26 34 37 17 1 7 5 1 4 11 0 352 348 331 305 273 228 175 209 204 173 162 151 154 171 175 173 179 183
85 73 63 60 57 48 61 82 90 82 64 50 29 4 17 27 23 22 21 30 34 24 15 17 12 2 344 335 326 327 258 166 206 286 184 160 164 183 177 188 188 191 198
97 77 66 75 74 64 90 95 94 88 68 47 33 19 29 26 23 14 14 31 42 44 32 9 10 1 334 335 330 355 8 29 46 2 333 113 73 18 98 114 141 184 205
107 86 58 60 75 62 101 101 90 78 67 49 40 31 39 39 25 14 24 33 28 26 16 12 359 345 334 327 329 339 3 39 43 34 343 54 45 59 65 115 111 109 182
105 84 56 58 70 49 60 101 93 78 69 54 42 34 33 33 16 23 35 29 25 12 2 25 23 4 350 360 1 1 29 58 84 50 318 35 48 24 31 16 81 89 72
110 99 80 64 74 62 33 83 96 88 73 62 47 32 35 34 25 28 37 30 26 353 350 21 16 10 5 13 24 17 347 6 105 119 136 191 17 59 26 15 338 283 202